Regional Weather Roundup
Issued by NWS Albany, NY

Home | Current Version | Previous Version | Text Only | Print | Product List | Glossary On
Versions: 1 2 3 4 5 6 7 8 9 10 11 12 13 14 15 16 17 18 19 20 21 22 23 24 25 26 27 28 29 30 31 32 33 34 35 36 37 38 39 40 41 42 43 44 45 46 47 48 49 50
000
ASUS41 KALY 271010
RWRALY

NEW YORK STATE HOURLY WEATHER ROUNDUP
NATIONAL WEATHER SERVICE ALBANY NY
600 AM EDT WED AUG 27 2014

NOTE: "FAIR" INDICATES FEW OR NO CLOUDS BELOW 12,000 FEET WITH NO
SIGNIFICANT WEATHER AND/OR NO OBSTRUCTIONS TO VISIBILITY.

NYZ032-033-038>043-046>054-057>066-NYZ062>081-271100-
EAST


CITY           SKY/WX    TMP DP  RH WIND       PRES   REMARKS
ALBANY         MOCLDY    68  62  81 S6        30.01R
GLENS FALLS    PTCLDY    67  62  84 SW5       29.99R
POUGHKEEPSIE   CLEAR     64  61  90 S3        30.01S
NEWBURGH       CLEAR     64  64 100 CALM      30.05R
MONTGOMERY     CLEAR     62  60  93 SW6       30.03S
WHITE PLAINS   CLEAR     66  61  84 W5        30.03S
ISLIP          PTCLDY    64  60  87 CALM      30.02S
NEW YORK CITY  PTCLDY    73  63  70 CALM      30.02S
CENTRAL PARK   CLEAR     70  62  76 W6        30.06R
$$

NYZ005>009-017-018-044>046-055-056-271100-
CENTRAL


CITY           SKY/WX    TMP DP  RH WIND       PRES   REMARKS
FULTON         CLOUDY    70  64  81 SW3       30.00R
SYRACUSE       LGT RAIN  75  64  68 SW9       30.00R
ROME           CLOUDY    68  63  84 CALM      30.01S
ELMIRA         MOCLDY    63  61  93 CALM      30.04S
BINGHAMTON     MOCLDY    66  58  75 SW7       30.07S
MONTICELLO     CLEAR     57  55  94 CALM      30.08S
$$

NYZ026>034-041>043-271100-
NORTH


CITY           SKY/WX    TMP DP  RH WIND       PRES   REMARKS
WATERTOWN      CLOUDY    72  67  84 SW5       29.98R
FORT DRUM      NOT AVBL
MASSENA        PTCLDY    67  63  87 W7        29.96R
SARANAC LAKE   CLOUDY    63  60  90 SW5       30.00R
PLATTSBURGH    MOCLDY    67  63  87 CALM      29.92R
$$

NYZ001>004-010>016-019>021-271100-
WEST


CITY           SKY/WX    TMP DP  RH WIND       PRES   REMARKS
NIAGARA FALLS  CLOUDY    69  62  78 CALM      30.03S
BUFFALO        CLOUDY    71  61  70 N8        30.05R
DUNKIRK        CLOUDY    72  69  90 SW8       30.05R
JAMESTOWN      CLOUDY    68  64  88 SW8       30.10S
WELLSVILLE     PTCLDY    65  62  90 W7        30.11S
ROCHESTER      CLOUDY    72  68  87 NW5       30.02S
PENN YAN       CLOUDY    73  65  75 S9        30.03S
$$

             KEY
       WCI = WIND CHILL INDEX
       VSB = VISIBILITY
       HX  = HEAT INDEX
$$


USA.gov is the U.S. government's official web portal to all federal, state and local government web resources and services.